This is the latest recevied weather packets stored in our database for station/object KC0OOO-WX. If no packets are shown the sender has not sent any weather packets the latest 1 day(s).
| Time | Temp. | Humidity | Pressure | Rain* | Wind** | Luminosity | Snow |
|---|---|---|---|---|---|---|---|
| 1777993356 | 7.22° C | 50% | 1014.9 hPa | 0 mm | 0 m/s | - | - |
| 1777992755 | 6.67° C | 57% | 1014.9 hPa | 0 mm | 0 m/s | - | - |
| 1777992155 | 6.67° C | 59% | 1015.2 hPa | 0 mm | 0 m/s | - | - |
| 1777991555 | 6.11° C | 61% | 1015.2 hPa | 0 mm | 0 m/s | - | - |
| 1777990955 | 5.56° C | 62% | 1015.2 hPa | 0 mm | 0 m/s | - | - |
| 1777990355 | 5° C | 61% | 1015.2 hPa | 0 mm | 0 m/s | - | - |
| 1777989755 | 5° C | 60% | 1015.2 hPa | 0 mm | 0 m/s | - | - |
| 1777989155 | 4.44° C | 65% | 1015.2 hPa | 0 mm | 0 m/s | - | - |
| 1777988555 | 4.44° C | 65% | 1015.2 hPa | 0 mm | 0 m/s | - | - |
| 1777987955 | 3.89° C | 67% | 1015.2 hPa | 0 mm | 0 m/s | - | - |
| 1777987355 | 3.89° C | 66% | 1015.2 hPa | 0 mm | 0 m/s | - | - |
| 1777986755 | 3.33° C | 63% | 1015.2 hPa | 0 mm | 0 m/s | - | - |
| 1777986155 | 3.33° C | 62% | 1015.2 hPa | 0 mm | 0 m/s | - | - |
| 1777985555 | 3.33° C | 63% | 1015.2 hPa | 0 mm | 0 m/s | - | - |
| 1777984955 | 3.33° C | 61% | 1015.2 hPa | 0 mm | 0 m/s | - | - |
| 1777984355 | 3.33° C | 59% | 1015.2 hPa | 0 mm | 0 m/s | - | - |
| 1777983755 | 3.33° C | 60% | 1015.2 hPa | 0 mm | 0 m/s | - | - |
| 1777983155 | 3.33° C | 59% | 1015.2 hPa | 0 mm | 0 m/s | - | - |
| 1777982555 | 3.89° C | 57% | 1015.2 hPa | 0 mm | 0 m/s | - | - |
| 1777981955 | 3.89° C | 58% | 1015.2 hPa | 0 mm | 0 m/s | - | - |
| 1777981359 | 3.89° C | 58% | 1015.2 hPa | 0 mm | 0 m/s | - | - |
| 1777980754 | 3.89° C | 58% | 1015.2 hPa | 0 mm | 0 m/s | - | - |
| 1777980154 | 3.89° C | 59% | 1015.2 hPa | 0 mm | 0 m/s | - | - |
| 1777979554 | 3.89° C | 57% | 1015.2 hPa | 0 mm | 0 m/s | - | - |
| 1777978924 | 3.89° C | 57% | 1015.2 hPa | 0 mm | 0 m/s | - | - |
* Rain latest hour (hover to see other rain measurements)
** Current wind speed in m/s (hover to see current wind gust speed)